Weather History for Galveston, TX

Change the Weather History Date:

Friday, May 3, 2013

  Actual Average Record
Temperature  
Mean Temperature 60 °F 74 °F  
Max Temperature 69 °F 80 °F 94 °F (1984)
Min Temperature 50 °F 69 °F 50 °F (2013)
Degree Days  
Heating Degree Days 5 0  
Month to date heating degree days 5 0  
Since 1 July heating degree days 750 1009  
Cooling Degree Days 0 10  
Month to date cooling degree days 12 28  
Year to date cooling degree days 246 271  
Growing Degree Days 10 (Base 50)    
Moisture  
Dew Point 40 °F    
Average Humidity 52    
Maximum Humidity 77    
Minimum Humidity 27    
Precipitation  
Precipitation 0.00 in 0.15 in 1.66 in (1990)
Month to date precipitation 0.00 0.40  
Year to date precipitation 13.60 13.38  
Snow  
Snow 0.00 in - - ()
Month to date snowfall 0.0  
Since 1 July snowfall 0.0  
Snow Depth 0.00 in    
Sea Level Pressure  
Sea Level Pressure 30.12 in    
Wind  
Wind Speed 22 mph (NNW)    
Max Wind Speed 33 mph    
Max Gust Speed 41 mph    
Visibility 10 miles    
Events      
T = Trace of Precipitation, MM = Missing Value Source: NWS Daily Summary

Daily Weather History Graph

Daily Weather History Graph

Search for Another Location

Airport:

Trip Planner

Search our weather history database for the weather conditions in past years. The results will help you decide how hot, cold, wet, or windy it might be!

Date:

Astronomy

May. 03, 2013 Rise Set
Actual Time 6:35 AM CDT 7:57 PM CDT
Civil Twilight 6:10 AM CDT 8:22 PM CDT
Nautical Twilight 5:40 AM CDT 8:52 PM CDT
Astronomical Twilight 5:09 AM CDT 9:23 PM CDT
Moon 2:31 AM CDT (5/3) 2:19 PM CDT (5/3)
Length of Visible Light 14h 11m
Length of Day
13h 21m
Last Quarter, 37% of the Moon is Illuminated
May 3
Last Quarter
May 9
New
May 17
First Quarter
May 24
Full
May 31
Last Quarter

Hourly Weather History & Observations

Time (CDT) Temp. Dew Point Humidity Pressure Visibility Wind Dir Wind Speed Gust Speed Precip Events Conditions
12:52 AM 54.0 °F 46.0 °F 75% 30.15 in 10.0 mi NW 24.2 mph 34.5 mph N/A   Overcast
1:52 AM 54.0 °F 45.0 °F 72% 30.13 in 10.0 mi NW 25.3 mph 36.8 mph N/A   Overcast
2:07 AM 53.6 °F 44.6 °F 72% 30.12 in 10.0 mi NW 25.3 mph 32.2 mph N/A   Overcast
2:36 AM 53.6 °F 44.6 °F 72% 30.12 in 10.0 mi NW 29.9 mph 40.3 mph N/A   Overcast
2:52 AM 53.1 °F 45.0 °F 74% 30.12 in 10.0 mi NW 27.6 mph 33.4 mph N/A   Overcast
3:19 AM 53.6 °F 44.6 °F 72% 30.12 in 10.0 mi NNW 31.1 mph 39.1 mph N/A   Overcast
3:52 AM 52.0 °F 43.0 °F 71% 30.12 in 10.0 mi NW 28.8 mph 35.7 mph N/A   Mostly Cloudy
4:05 AM 51.8 °F 42.8 °F 71% 30.12 in 10.0 mi NNW 27.6 mph 35.7 mph N/A   Overcast
4:52 AM 51.1 °F 43.0 °F 74% 30.13 in 10.0 mi NNW 21.9 mph 33.4 mph N/A   Mostly Cloudy
5:42 AM 51.8 °F 42.8 °F 71% 30.12 in 10.0 mi NW 27.6 mph 40.3 mph N/A   Overcast
5:52 AM 51.1 °F 41.0 °F 68% 30.13 in 10.0 mi NW 27.6 mph 38.0 mph N/A   Overcast
6:52 AM 51.1 °F 41.0 °F 68% 30.14 in 10.0 mi NW 24.2 mph 36.8 mph N/A   Mostly Cloudy
7:52 AM 52.0 °F 39.9 °F 63% 30.15 in 10.0 mi NW 25.3 mph 34.5 mph N/A   Clear
8:52 AM 53.6 °F 39.2 °F 58% 30.15 in 10.0 mi NNW 26.5 mph 36.8 mph N/A   Clear
9:52 AM 55.0 °F 41.0 °F 59% 30.16 in 10.0 mi NNW 26.5 mph 39.1 mph N/A   Clear
10:52 AM 59.0 °F 42.1 °F 53% 30.15 in 10.0 mi NNW 25.3 mph 34.5 mph N/A   Clear
11:52 AM 61.0 °F 42.1 °F 50% 30.16 in 10.0 mi NNW 24.2 mph 34.5 mph N/A   Clear
12:52 PM 64.0 °F 39.9 °F 41% 30.14 in 10.0 mi NNW 23.0 mph 34.5 mph N/A   Clear
1:52 PM 66.9 °F 37.0 °F 33% 30.13 in 10.0 mi NNW 25.3 mph 32.2 mph N/A   Clear
2:52 PM 68.0 °F 36.0 °F 31% 30.10 in 10.0 mi NNW 24.2 mph 31.1 mph N/A   Clear
3:52 PM 69.1 °F 35.1 °F 29% 30.08 in 10.0 mi NNW 24.2 mph - N/A   Clear
4:52 PM 69.1 °F 35.1 °F 29% 30.06 in 10.0 mi North 18.4 mph 26.5 mph N/A   Clear
5:52 PM 68.0 °F 34.0 °F 28% 30.05 in 10.0 mi NNW 20.7 mph - N/A   Clear
6:52 PM 66.9 °F 34.0 °F 30% 30.05 in 10.0 mi North 15.0 mph - N/A   Clear
7:52 PM 64.9 °F 36.0 °F 34% 30.07 in 10.0 mi North 19.6 mph 26.5 mph N/A   Clear
8:52 PM 64.0 °F 36.0 °F 35% 30.08 in 10.0 mi North 20.7 mph 25.3 mph N/A   Clear
9:52 PM 64.0 °F 35.1 °F 34% 30.11 in 10.0 mi NNW 16.1 mph - N/A   Clear
10:52 PM 63.0 °F 37.0 °F 38% 30.12 in 10.0 mi NNW 13.8 mph - N/A   Clear
11:52 PM 62.1 °F 39.0 °F 43% 30.11 in 10.0 mi NNW 12.7 mph - N/A   Clear